Location: Lansingburgh
(42.7845°N, 73.6696°W)
Time: 16:24:08
(UTC+00:00)

Meteor 1-21 Rocket - Pass Details

Date: 24 January 2020
Orbit: 834 x 906 km, 81.2° (Epoch: 26 February)

Event Time Altitude Azimuth Distance (km) Brightness Sun altitude
Rises 22:49:15 0° 187° (S) 3,385 7.7 -9.8°
Reaches altitude 10° 22:51:38 10° 188° (S) 2,462 7.0 -10.2°
Maximum altitude 22:57:14 89° 100° (E) 864 4.2 -11.2°
Drops below altitude 10° 23:02:59 10° 10° (N) 2,526 6.4 -12.2°
Sets 23:05:27 0° 11° (N) 3,479 7.1 -12.6°
